Weather History for KC29 - January, 2013

Change the Weather History Date:

Friday, January 11, 2013

  Actual Average (KMSN) Record (KMSN)
Temperature  
Mean Temperature 40 °F 18 °F  
Max Temperature 46 °F 26 °F 53 °F (1880)
Min Temperature 34 °F 11 °F -28 °F (1979)
Degree Days  
Heating Degree Days 25 46  
Month to date heating degree days 506  
Since 1 July heating degree days 3385  
Cooling Degree Days 0 0  
Month to date cooling degree days 0  
Year to date cooling degree days 0  
Moisture  
Dew Point 40 °F    
Average Humidity 97    
Maximum Humidity 99    
Minimum Humidity 90    
Precipitation  
Precipitation 0.02 in 0.04 in 0.75 in (1890)
Month to date precipitation 0.45  
Year to date precipitation 0.45  
Snow  
Snow 0.00 in 0.50 in 6.50 in (1991)
Month to date snowfall 4.5  
Since 1 July snowfall 22.1  
Snow Depth -    
Sea Level Pressure  
Sea Level Pressure 29.66 in    
Wind  
Wind Speed 6 mph (South)    
Max Wind Speed 16 mph    
Max Gust Speed 23 mph    
Visibility 3 miles    
Events      
T = Trace of Precipitation, MM = Missing Value Source: NWS Daily Summary

Daily Weather History Graph

Daily Weather History Graph

Search for Another Location

Airport or City:

Trip Planner

Search our weather history database for the weather conditions in past years. The results will help you decide how hot, cold, wet, or windy it might be!

Date:

Astronomy

Jan. 11, 2013 Rise Set
Actual Time 7:28 AM CST 4:44 PM CST
Civil Twilight 6:56 AM CST 5:16 PM CST
Nautical Twilight 6:21 AM CST 5:51 PM CST
Astronomical Twilight 5:47 AM CST 6:25 PM CST
Moon 7:00 AM CST (1/11) 5:03 PM CST (1/11)
Length of Visible Light 10h 19m
Length of Day
9h 15m
Waning Crescent, 0% of the Moon is Illuminated
Jan 11
Waning Crescent
Jan 11
New
Jan 18
First Quarter
Jan 26
Full
Feb 3
Last Quarter

Hourly Weather History & Observations

Time (CST) Temp. Windchill Dew Point Humidity Pressure Visibility Wind Dir Wind Speed Gust Speed Precip Events Conditions
12:15 AM 36.1 °F 29.3 °F 35.4 °F 97% 29.82 in 4.0 mi ESE 9.2 mph - N/A   Overcast
12:35 AM 36.5 °F 30.3 °F 35.6 °F 97% 29.80 in 2.5 mi SE 8.1 mph - N/A   Overcast
12:55 AM 36.5 °F 29.7 °F 35.6 °F 97% 29.78 in 1.2 mi SE 9.2 mph - N/A   Overcast
1:15 AM 36.9 °F 34.3 °F 36.3 °F 98% 29.80 in 1.2 mi South 3.5 mph - N/A   Overcast
1:35 AM 37.4 °F 31.4 °F 36.5 °F 97% 29.77 in 0.8 mi SE 8.1 mph - N/A   Overcast
1:55 AM 37.6 °F - 37.0 °F 98% 29.77 in 1.2 mi Calm Calm - N/A   Overcast
2:15 AM 37.9 °F - 37.4 °F 98% 29.77 in 1.0 mi Calm Calm - N/A   Overcast
2:35 AM 36.7 °F - 36.1 °F 98% 29.75 in 0.5 mi Calm Calm - N/A   Overcast
2:55 AM 36.9 °F 33.1 °F 36.3 °F 98% 29.72 in 0.2 mi ESE 4.6 mph - N/A   Overcast
3:15 AM 36.5 °F 33.9 °F 36.1 °F 99% 29.71 in 0.2 mi East 3.5 mph - N/A   Overcast
3:35 AM 36.7 °F 34.1 °F 36.3 °F 99% 29.69 in 0.2 mi ESE 3.5 mph - N/A   Overcast
3:55 AM 36.9 °F - 36.5 °F 99% 29.69 in 0.2 mi Calm Calm - N/A   Overcast
4:15 AM 36.5 °F - 36.0 °F 98% 29.67 in 0.2 mi Calm Calm - N/A   Overcast
4:35 AM 36.1 °F - 35.8 °F 99% 29.67 in 0.2 mi Calm Calm - N/A   Overcast
4:55 AM 35.6 °F - 35.1 °F 98% 29.67 in 0.2 mi Calm Calm - N/A   Overcast
5:15 AM 34.9 °F - 34.7 °F 99% 29.68 in 0.2 mi Calm Calm - N/A   Overcast
5:35 AM 35.1 °F - 34.7 °F 99% 29.68 in 0.2 mi Calm Calm - N/A   Overcast
5:55 AM 35.1 °F - 34.7 °F 99% 29.67 in 0.5 mi Calm Calm - 0.01 in   Overcast
6:35 AM 35.2 °F 32.4 °F 34.9 °F 99% 29.68 in 1.0 mi NW 3.5 mph - 0.01 in   Overcast
6:55 AM 35.1 °F 32.2 °F 34.7 °F 99% 29.68 in 1.5 mi West 3.5 mph - 0.01 in   Overcast
7:15 AM 35.6 °F - 35.2 °F 99% 29.68 in 1.2 mi Calm Calm - N/A   Overcast
7:35 AM 35.6 °F 32.8 °F 35.2 °F 99% 29.68 in 1.0 mi ESE 3.5 mph - N/A   Overcast
7:55 AM 35.6 °F - 35.2 °F 99% 29.68 in 1.8 mi Calm Calm - N/A   Overcast
8:15 AM 35.8 °F 33.0 °F 35.6 °F 99% 29.68 in 1.5 mi South 3.5 mph - N/A   Overcast
8:35 AM 36.5 °F - 36.1 °F 99% 29.67 in 0.5 mi Calm Calm - N/A   Overcast
8:55 AM 36.5 °F - 36.1 °F 99% 29.67 in 0.2 mi Calm Calm - N/A   Overcast
9:15 AM 37.0 °F - 36.7 °F 99% 29.67 in 0.2 mi Calm Calm - N/A   Overcast
9:35 AM 38.8 °F - 38.1 °F 97% 29.68 in 0.5 mi Calm Calm - N/A   Overcast
9:55 AM 39.4 °F 36.1 °F 38.8 °F 98% 29.67 in 0.5 mi SW 4.6 mph - N/A   Overcast
10:15 AM 39.4 °F 34.5 °F 38.8 °F 98% 29.70 in 0.5 mi SW 6.9 mph - N/A   Overcast
10:35 AM 39.2 °F 33.0 °F 38.5 °F 97% 29.70 in 1.0 mi SW 9.2 mph - N/A   Overcast
10:55 AM 39.4 °F 31.8 °F 38.8 °F 98% 29.69 in 1.2 mi SSW 12.7 mph - N/A   Overcast
11:15 AM 39.6 °F 32.5 °F 39.2 °F 99% 29.68 in 0.5 mi SSW 11.5 mph 16.1 mph N/A   Overcast
11:35 AM 40.1 °F 35.3 °F 39.4 °F 97% 29.68 in 1.0 mi SSW 6.9 mph - N/A   Overcast
11:55 AM 40.1 °F 36.1 °F 39.6 °F 98% 29.68 in 0.8 mi SSW 5.8 mph - N/A   Overcast
12:15 PM 40.1 °F 36.9 °F 39.6 °F 98% 29.67 in 0.5 mi SSW 4.6 mph - N/A   Overcast
12:35 PM 40.3 °F 34.9 °F 39.7 °F 98% 29.67 in 1.0 mi SSW 8.1 mph - N/A   Overcast
12:55 PM 40.1 °F 35.3 °F 39.6 °F 98% 29.66 in 1.2 mi South 6.9 mph - N/A   Overcast
1:15 PM 40.3 °F 35.5 °F 39.7 °F 98% 29.66 in 0.2 mi SSW 6.9 mph - N/A   Overcast
1:35 PM 40.5 °F 36.5 °F 40.1 °F 99% 29.66 in 0.2 mi South 5.8 mph - N/A   Overcast
1:55 PM 40.5 °F 35.8 °F 40.1 °F 99% 29.67 in 0.2 mi South 6.9 mph - N/A   Overcast
2:15 PM 41.0 °F 37.1 °F 40.3 °F 97% 29.65 in 0.2 mi South 5.8 mph - N/A   Overcast
2:35 PM 41.2 °F 36.6 °F 40.6 °F 98% 29.64 in 0.2 mi South 6.9 mph - N/A   Overcast
2:55 PM 41.7 °F 38.0 °F 41.2 °F 98% 29.63 in 0.2 mi South 5.8 mph - N/A   Overcast
3:15 PM 41.9 °F 36.9 °F 41.4 °F 98% 29.64 in 0.2 mi South 8.1 mph - N/A   Overcast
3:35 PM 43.0 °F 37.7 °F 42.4 °F 98% 29.63 in 0.2 mi South 9.2 mph - N/A   Overcast
3:55 PM 43.5 °F 37.9 °F 43.0 °F 98% 29.63 in 0.2 mi South 10.4 mph - N/A   Overcast
4:15 PM 43.7 °F 39.7 °F 43.0 °F 97% 29.63 in 0.2 mi South 6.9 mph - N/A   Overcast
4:35 PM 43.9 °F 39.3 °F 43.3 °F 98% 29.63 in 0.2 mi South 8.1 mph - N/A   Overcast
4:55 PM 43.7 °F 38.6 °F 43.2 °F 98% 29.63 in 0.8 mi South 9.2 mph - N/A   Overcast
5:15 PM 43.9 °F 39.3 °F 43.3 °F 98% 29.64 in 3.0 mi South 8.1 mph 16.1 mph N/A   Overcast
5:35 PM 44.1 °F 39.5 °F 43.3 °F 97% 29.63 in 4.0 mi South 8.1 mph - N/A   Overcast
5:55 PM 44.6 °F 39.2 °F 43.9 °F 97% 29.62 in 4.0 mi South 10.4 mph - N/A   Overcast
6:15 PM 45.5 °F 39.9 °F 44.8 °F 97% 29.63 in 5.0 mi South 11.5 mph 17.3 mph N/A   Overcast
6:35 PM 45.1 °F 39.9 °F 44.4 °F 97% 29.62 in 5.0 mi South 10.4 mph - N/A   Overcast
6:55 PM 45.5 °F 38.9 °F 44.8 °F 97% 29.60 in 5.0 mi South 15.0 mph - N/A   Overcast
7:15 PM 45.9 °F 40.4 °F 45.1 °F 97% 29.60 in 5.0 mi South 11.5 mph - N/A   Overcast
7:55 PM 45.3 °F 39.0 °F 44.6 °F 97% 29.60 in 5.0 mi South 13.8 mph - N/A   Overcast
8:15 PM 45.1 °F 38.4 °F 44.6 °F 98% 29.60 in 5.0 mi South 15.0 mph 20.7 mph N/A   Mostly Cloudy
8:35 PM 45.1 °F 39.5 °F 44.4 °F 97% 29.60 in 7.0 mi South 11.5 mph - N/A   Scattered Clouds
8:55 PM 45.5 °F 39.6 °F 44.6 °F 97% 29.59 in 7.0 mi South 12.7 mph - N/A   Clear
9:15 PM 45.5 °F 39.2 °F 44.8 °F 97% 29.57 in 10.0 mi South 13.8 mph 21.9 mph N/A   Clear
9:35 PM 45.7 °F 38.8 °F 44.8 °F 97% 29.57 in 10.0 mi South 16.1 mph 21.9 mph N/A   Clear
9:55 PM 45.9 °F 39.1 °F 44.4 °F 95% 29.56 in 10.0 mi South 16.1 mph 23.0 mph N/A   Clear
10:15 PM 45.9 °F 39.1 °F 44.2 °F 94% 29.57 in 10.0 mi South 16.1 mph 21.9 mph N/A   Clear
10:35 PM 46.0 °F 39.3 °F 44.1 °F 93% 29.57 in 10.0 mi SSW 16.1 mph 21.9 mph N/A   Clear
10:55 PM 46.0 °F 40.2 °F 43.7 °F 92% 29.58 in 10.0 mi SSW 12.7 mph - N/A   Clear
11:15 PM 46.4 °F 40.7 °F 43.7 °F 90% 29.58 in 10.0 mi SSW 12.7 mph - N/A   Clear
11:35 PM 46.0 °F 40.6 °F 43.3 °F 90% 29.58 in 10.0 mi SSW 11.5 mph - N/A   Clear
11:55 PM 46.0 °F 40.2 °F 43.2 °F 90% 29.58 in 10.0 mi SSW 12.7 mph - N/A   Clear